CW0198 Weather Reports


Display with metric or nautical units.
time (UTC)temp
F
wind
direction
speed
MPH
gust
MPH
rain 1hr
in
rain 24hr
in
rain mn
in
humidity
%
barometer
mb
20200217195802 59 157 2.0 7.0 0.00 0.01 0.00 51 1022.0
20200217195303 59 66 3.0 7.0 0.00 0.01 0.00 51 1022.2
20200217194803 60 65 3.0 8.0 0.00 0.01 0.00 51 1022.1
20200217194303 59 31 1.0 8.0 0.00 0.01 0.00 51 1022.1
20200217193802 59 77 1.0 8.0 0.00 0.01 0.00 53 1022.2
20200217193302 59 16 1.0 6.0 0.00 0.01 0.00 52 1022.1
20200217192803 59 58 2.0 6.0 0.00 0.01 0.00 52 1022.3
20200217192303 59 29 2.0 7.0 0.00 0.01 0.00 52 1022.2
20200217191802 59 330 2.0 10.0 0.00 0.01 0.00 51 1022.0
20200217191303 59 91 6.0 10.0 0.00 0.01 0.00 50 1022.1
20200217190802 60 60 1.0 9.0 0.00 0.01 0.00 51 1022.2
20200217190303 59 53 3.0 9.0 0.00 0.01 0.00 51 1022.1
20200217185803 59 25 3.0 7.0 0.00 0.01 0.00 52 1022.1
20200217185302 59 106 4.0 7.0 0.00 0.01 0.00 50 1022.1
20200217184803 59 43 1.0 8.0 0.00 0.01 0.00 52 1022.2
20200217184303 59 48 3.0 8.0 0.00 0.01 0.00 51 1022.3
20200217183803 59 40 2.0 7.0 0.00 0.01 0.00 52 1022.4
20200217183303 59 276 2.0 7.0 0.00 0.01 0.00 53 1022.5
20200217182802 58 33 3.0 7.0 0.00 0.01 0.00 51 1022.7
20200217182302 58 68 1.0 6.0 0.00 0.01 0.00 54 1022.6
20200217181803 58 68 2.0 7.0 0.00 0.01 0.00 53 1022.7
20200217181303 58 74 1.0 7.0 0.00 0.01 0.00 54 1022.6
20200217180803 58 23 2.0 7.0 0.00 0.01 0.00 53 1022.8
20200217180303 58 85 3.0 7.0 0.00 0.01 0.00 53 1022.9
20200217175802 58 9 3.0 7.0 0.00 0.01 0.00 53 1023.1
20200217175302 58 323 2.0 7.0 0.00 0.01 0.00 52 1023.2
20200217174803 58 62 3.0 8.0 0.00 0.01 0.00 54 1023.3
20200217174303 57 69 1.0 8.0 0.00 0.01 0.00 55 1023.1
20200217173803 57 32 2.0 9.0 0.00 0.01 0.00 54 1023.0
20200217173303 57 87 3.0 10.0 0.00 0.01 0.00 55 1023.1
20200217172803 57 44 3.0 10.0 0.00 0.01 0.00 55 1023.0
20200217172303 58 64 4.0 10.0 0.00 0.01 0.00 55 1023.2
20200217171803 57 68 1.0 6.0 0.00 0.01 0.00 55 1023.3
20200217171302 57 149 3.0 6.0 0.00 0.01 0.00 55 1023.5
20200217170803 57 46 2.0 7.0 0.00 0.01 0.00 54 1023.7
20200217170303 57 167 1.0 7.0 0.00 0.01 0.00 56 1023.7
20200217165803 57 40 3.0 8.0 0.00 0.01 0.00 56 1023.6
20200217165303 56 262 0.0 8.0 0.00 0.01 0.00 58 1023.7
20200217164802 56 121 1.0 6.0 0.00 0.01 0.00 57 1023.7
20200217164303 56 84 2.0 7.0 0.00 0.01 0.00 57 1023.6
20200217163803 56 64 3.0 7.0 0.00 0.01 0.00 57 1023.5
20200217163302 55 48 2.0 7.0 0.00 0.01 0.00 60 1023.6
20200217162803 55 15 1.0 7.0 0.00 0.01 0.00 59 1023.8
20200217162303 55 71 3.0 8.0 0.00 0.01 0.00 59 1023.7
20200217161803 55 131 3.0 8.0 0.00 0.01 0.00 58 1023.7
20200217161302 55 107 3.0 9.0 0.00 0.01 0.00 60 1023.7
20200217160802 55 53 2.0 9.0 0.00 0.01 0.00 61 1023.5
20200217160303 54 56 2.0 8.0 0.00 0.01 0.00 63 1023.2
20200217155803 54 37 3.0 8.0 0.00 0.01 0.00 64 1023.1
20200217155303 53 48 4.0 8.0 0.00 0.01 0.00 64 1023.0
20200217154803 53 18 3.0 9.0 0.00 0.01 0.00 67 1023.1
20200217154303 53 53 3.0 9.0 0.00 0.01 0.00 68 1023.1
20200217153803 52 91 1.0 9.0 0.00 0.01 0.00 68 1023.1
20200217153302 52 43 3.0 10.0 0.00 0.01 0.00 68 1023.1
20200217152803 52 93 2.0 10.0 0.00 0.01 0.00 68 1023.1
20200217152303 52 29 3.0 10.0 0.00 0.01 0.00 69 1023.2
20200217151804 51 13 4.0 9.0 0.00 0.01 0.00 69 1023.3
20200217151303 51 24 3.0 8.0 0.00 0.01 0.00 70 1023.3
20200217150803 51 49 2.0 8.0 0.00 0.01 0.00 72 1023.3
20200217150303 50 70 2.0 9.0 0.00 0.01 0.00 72 1023.2
20200217145803 50 34 3.0 9.0 0.00 0.01 0.00 73 1023.1
20200217145302 50 14 1.0 6.0 0.00 0.01 0.00 74 1023.0
20200217144803 49 132 1.0 6.0 0.00 0.01 0.00 76 1023.0
20200217144302 49 47 1.0 5.0 0.00 0.01 0.00 77 1023.1
20200217143803 48 50 2.0 5.0 0.00 0.01 0.00 77 1023.2
20200217143303 48 47 2.0 7.0 0.00 0.01 0.00 78 1023.3
20200217142803 48 59 4.0 7.0 0.00 0.01 0.00 79 1023.2
20200217142302 47 53 1.0 7.0 0.00 0.01 0.00 81 1023.2
20200217141802 47 11 2.0 8.0 0.00 0.01 0.00 82 1023.1
20200217141303 46 49 2.0 8.0 0.00 0.01 0.00 82 1023.1
20200217140803 46 37 1.0 8.0 0.00 0.01 0.00 86 1022.9
20200217140303 45 94 1.0 3.0 0.00 0.01 0.00 87 1022.7
20200217135803 45 55 0.0 3.0 0.00 0.01 0.00 91 1022.6
20200217135302 44 17 1.0 3.0 0.00 0.01 0.00 93 1022.7
20200217134803 43 17 1.0 3.0 0.00 0.01 0.00 96 1022.6
20200217134303 43 23 1.0 3.0 0.00 0.01 0.00 97 1022.6
20200217133803 43 55 1.0 2.0 0.00 0.01 0.00 97 1022.7
20200217133303 42 24 0.0 1.0 0.00 0.01 0.00 97 1022.7
20200217132803 42 36 0.0 1.0 0.00 0.01 0.00 97 1022.7
20200217132303 41 51 0.0 1.0 0.00 0.01 0.00 97 1022.5
20200217131803 41 7 0.0 1.0 0.00 0.01 0.00 97 1022.5
20200217131302 40 55 0.0 0.0 0.00 0.01 0.00 97 1022.6
20200217130803 40 237 0.0 0.0 0.00 0.01 0.00 97 1022.5
20200217130302 39 237 0.0 0.0 0.00 0.01 0.00 97 1022.6
20200217125803 38 237 0.0 0.0 0.00 0.01 0.00 97 1022.3
20200217125303 37 192 0.0 0.0 0.00 0.01 0.00 97 1022.2
20200217124802 37 192 0.0 0.0 0.00 0.01 0.00 97 1021.9
20200217124303 37 192 0.0 0.0 0.00 0.01 0.00 96 1021.8
20200217123803 37 192 0.0 0.0 0.00 0.01 0.00 96 1021.6
20200217123303 36 192 0.0 0.0 0.00 0.01 0.00 96 1021.4
20200217122802 36 192 0.0 0.0 0.00 0.01 0.00 96 1021.1
20200217122303 36 192 0.0 0.0 0.00 0.01 0.00 96 1021.1
20200217121803 37 192 0.0 0.0 0.00 0.01 0.00 96 1021.2
20200217121303 37 192 0.0 0.0 0.00 0.01 0.00 96 1021.1
20200217120803 37 192 0.0 0.0 0.00 0.01 0.00 96 1021.2
20200217120303 38 192 0.0 0.0 0.00 0.01 0.00 96 1021.3
20200217115803 38 192 0.0 0.0 0.00 0.01 0.00 96 1021.4
20200217115305 38 192 0.0 0.0 0.00 0.01 0.00 97 1021.4
20200217114803 38 192 0.0 0.0 0.00 0.01 0.00 97 1021.4
20200217114303 38 192 0.0 0.0 0.00 0.01 0.00 96 1021.4
20200217113804 38 192 0.0 0.0 0.00 0.01 0.00 96 1021.4
20200217113303 38 192 0.0 0.0 0.00 0.01 0.00 96 1021.3
20200217112803 38 192 0.0 0.0 0.00 0.01 0.00 96 1021.2
20200217112303 38 192 0.0 0.0 0.00 0.01 0.00 96 1021.2
20200217111804 38 192 0.0 0.0 0.00 0.01 0.00 96 1021.2
20200217111303 39 192 0.0 0.0 0.00 0.01 0.00 96 1021.2
20200217110802 39 192 0.0 0.0 0.00 0.01 0.00 96 1021.0
20200217110303 39 192 0.0 0.0 0.00 0.01 0.00 96 1020.8
20200217105803 39 192 0.0 0.0 0.00 0.01 0.00 96 1020.9
20200217105305 40 192 0.0 0.0 0.00 0.01 0.00 96 1020.8
20200217104803 40 192 0.0 0.0 0.00 0.01 0.00 96 1020.7
20200217104303 40 192 0.0 0.0 0.00 0.01 0.00 96 1020.2
20200217103802 40 192 0.0 0.0 0.00 0.01 0.00 96 1020.2
20200217103302 40 192 0.0 0.0 0.00 0.01 0.00 96 1020.2
20200217102803 40 192 0.0 0.0 0.00 0.01 0.00 96 1020.0
20200217102303 40 192 0.0 0.0 0.00 0.01 0.00 96 1019.9
20200217101804 40 192 0.0 0.0 0.00 0.01 0.00 96 1019.8
20200217101303 39 192 0.0 0.0 0.00 0.01 0.00 96 1019.8
20200217100805 39 192 0.0 0.0 0.00 0.01 0.00 96 1019.6
20200217100303 39 192 0.0 0.0 0.00 0.01 0.00 96 1019.7
20200217095803 39 192 0.0 0.0 0.00 0.01 0.00 95 1019.6
20200217095305 40 192 0.0 0.0 0.00 0.01 0.00 95 1019.5
20200217094803 40 192 0.0 0.0 0.00 0.01 0.00 95 1019.5
20200217094303 40 192 0.0 0.0 0.00 0.01 0.00 95 1019.3
20200217093803 40 192 0.0 0.0 0.00 0.01 0.00 96 1019.2
20200217093303 41 192 0.0 0.0 0.00 0.01 0.00 96 1019.2
20200217092803 41 192 0.0 0.0 0.00 0.01 0.00 96 1019.3
20200217092305 40 192 0.0 0.0 0.00 0.01 0.00 96 1019.3
20200217091303 41 192 0.0 0.0 0.00 0.01 0.00 95 1019.2
20200217090803 41 192 0.0 0.0 0.00 0.01 0.00 95 1019.2
20200217090303 41 192 0.0 0.0 0.00 0.01 0.00 95 1019.1
20200217085803 42 192 0.0 0.0 0.00 0.01 0.00 95 1019.1
20200217085305 42 192 0.0 0.0 0.00 0.01 0.00 96 1019.1
20200217084804 42 192 0.0 0.0 0.00 0.01 0.00 96 1019.1
20200217084303 42 192 0.0 0.0 0.00 0.01 0.00 96 1019.0
20200217083803 42 192 0.0 0.0 0.00 0.01 0.00 95 1018.8
20200217083303 42 192 0.0 0.0 0.00 0.01 0.00 95 1018.9
20200217082803 43 192 0.0 0.0 0.00 0.01 0.00 95 1018.9
20200217082303 43 192 0.0 0.0 0.00 0.01 0.00 95 1018.9
20200217081803 43 192 0.0 0.0 0.00 0.01 0.00 95 1018.9
20200217081303 43 192 0.0 0.0 0.00 0.01 0.00 96 1018.8
20200217080804 43 192 0.0 0.0 0.00 0.01 0.00 96 1019.0
20200217080303 43 192 0.0 0.0 0.00 0.01 0.00 96 1019.0
20200217075803 43 192 0.0 0.0 0.00 0.01 0.00 95 1018.9
20200217075306 43 192 0.0 0.0 0.00 0.01 0.00 95 1019.1
20200217074803 43 149 0.0 0.0 0.00 0.01 0.00 95 1018.8
20200217074303 43 143 0.0 0.0 0.00 0.01 0.00 95 1018.5
20200217073805 43 193 0.0 0.0 0.00 0.01 0.00 95 1018.6
20200217073303 43 213 0.0 0.0 0.00 0.01 0.00 95 1019.2
20200217072803 43 213 0.0 0.0 0.00 0.01 0.00 95 1019.1
20200217072306 43 213 0.0 0.0 0.00 0.01 0.00 95 1018.8
20200217071803 43 213 0.0 0.0 0.00 0.01 0.00 95 1019.1
20200217071303 43 213 0.0 0.0 0.00 0.01 0.00 95 1018.8
20200217070803 43 213 0.0 0.0 0.00 0.01 0.00 95 1018.8
20200217070303 43 213 0.0 0.0 0.00 0.01 0.00 95 1019.1
20200217065803 43 213 0.0 0.0 0.00 0.01 0.00 95 1019.3
20200217065303 43 213 0.0 0.0 0.00 0.01 0.00 95 1019.4
20200217064803 44 213 0.0 0.0 0.00 0.01 0.00 95 1019.3
20200217064303 44 213 0.0 0.0 0.00 0.01 0.00 95 1019.5
20200217063804 43 213 0.0 0.0 0.00 0.01 0.00 95 1019.5
20200217063303 43 213 0.0 0.0 0.00 0.01 0.00 95 1019.7
20200217062803 43 214 0.0 0.0 0.00 0.01 0.00 95 1019.9
20200217062303 43 214 0.0 0.0 0.00 0.01 0.00 94 1019.9
20200217061804 43 214 0.0 0.0 0.00 0.01 0.00 94 1020.0
20200217061304 43 213 0.0 0.0 0.00 0.01 0.00 94 1019.8
20200217060803 43 213 0.0 0.0 0.00 0.01 0.00 94 1019.7
20200217060303 44 213 0.0 0.0 0.00 0.01 0.00 94 1019.6
20200217055804 44 213 0.0 0.0 0.00 0.01 0.00 94 1019.3
20200217055303 44 213 0.0 0.0 0.00 0.01 0.00 94 1019.4
20200217054803 44 213 0.0 0.0 0.00 0.01 0.00 93 1019.6
20200217054303 44 213 0.0 0.0 0.00 0.01 0.00 93 1019.5
20200217053803 44 229 0.0 0.0 0.00 0.01 0.00 93 1019.3
20200217053303 44 229 0.0 0.0 0.00 0.01 0.00 93 1019.3
20200217052803 45 229 0.0 0.0 0.00 0.01 0.00 93 1019.4
20200217052303 45 229 0.0 0.0 0.00 0.01 0.00 92 1019.6
20200217051803 45 229 0.0 0.0 0.00 0.01 0.00 92 1019.7
20200217051303 45 229 0.0 0.0 0.00 0.01 0.00 92 1019.9
20200217050803 45 229 0.0 0.0 0.00 0.01 0.00 92 1019.7
20200217050303 45 229 0.0 0.0 0.00 0.01 0.00 92 1019.7
20200217045803 45 229 0.0 0.0 0.01 0.01 0.01 92 1019.9
20200217045304 45 204 0.0 0.0 0.01 0.01 0.01 91 1019.8
20200217044803 45 204 0.0 0.0 0.01 0.01 0.01 91 1019.8
20200217044304 46 205 0.0 1.0 0.01 0.01 0.01 91 1020.1
20200217043803 46 204 0.0 1.0 0.00 0.00 0.00 91 1020.2
20200217043303 46 152 0.0 0.0 0.00 0.00 0.00 90 1020.2
20200217042805 46 149 0.0 0.0 0.00 0.00 0.00 90 1020.2
20200217042304 46 148 0.0 0.0 0.00 0.00 0.00 89 1020.1
20200217041803 46 150 0.0 0.0 0.00 0.00 0.00 89 1020.1
20200217041303 46 150 0.0 0.0 0.00 0.00 0.00 88 1020.4
20200217040803 46 230 0.0 0.0 0.00 0.00 0.00 88 1020.5
20200217040303 46 246 0.0 0.0 0.00 0.00 0.00 87 1020.6
20200217035803 47 246 0.0 0.0 0.00 0.00 0.00 86 1020.6
20200217035303 47 246 0.0 0.0 0.00 0.00 0.00 85 1020.5
20200217034803 47 246 0.0 0.0 0.00 0.00 0.00 85 1020.6
20200217034303 47 246 0.0 0.0 0.00 0.00 0.00 84 1020.6
20200217033804 47 247 0.0 0.0 0.00 0.00 0.00 83 1020.5
20200217033303 47 247 0.0 1.0 0.00 0.00 0.00 82 1020.4
20200217032804 47 319 0.0 1.0 0.00 0.00 0.00 82 1020.4
20200217032303 48 269 0.0 2.0 0.00 0.00 0.00 81 1020.4
20200217031803 48 227 0.0 3.0 0.00 0.00 0.00 81 1020.3
20200217031303 48 171 1.0 3.0 0.00 0.00 0.00 80 1020.2
20200217030803 48 198 1.0 3.0 0.00 0.00 0.00 80 1020.2
20200217030303 48 211 0.0 3.0 0.00 0.00 0.00 79 1020.2
20200217025804 48 251 0.0 2.0 0.00 0.00 0.00 78 1020.3
20200217025303 48 237 0.0 3.0 0.00 0.00 0.00 78 1020.2
20200217024803 49 234 0.0 3.0 0.00 0.00 0.00 76 1020.0
20200217024303 49 193 2.0 3.0 0.00 0.00 0.00 76 1019.7
20200217023804 49 197 1.0 2.0 0.00 0.00 0.00 77 1020.0
20200217023303 49 223 0.0 2.0 0.00 0.00 0.00 75 1019.9
20200217022803 49 215 1.0 1.0 0.00 0.00 0.00 73 1020.1
20200217022303 49 250 0.0 1.0 0.00 0.00 0.00 73 1019.9
20200217021803 49 184 0.0 1.0 0.00 0.00 0.00 73 1019.9
20200217021303 49 156 0.0 1.0 0.00 0.00 0.00 73 1019.8
20200217020803 49 165 0.0 0.0 0.00 0.00 0.00 73 1019.8
20200217020304 49 162 0.0 1.0 0.00 0.00 0.00 73 1019.8
20200217015803 49 162 0.0 1.0 0.00 0.00 0.00 72 1019.8
20200217015304 49 165 0.0 1.0 0.00 0.00 0.00 74 1019.8
20200217014803 49 166 0.0 0.0 0.00 0.00 0.00 75 1019.9
20200217014303 49 155 0.0 0.0 0.00 0.00 0.00 75 1020.0
20200217013803 48 152 0.0 1.0 0.00 0.00 0.00 76 1019.9
20200217013303 48 162 0.0 1.0 0.00 0.00 0.00 75 1019.8
20200217012803 48 160 0.0 0.0 0.00 0.00 0.00 76 1019.8
20200217012303 48 285 0.0 0.0 0.00 0.00 0.00 78 1019.9
20200217011804 47 285 0.0 0.0 0.00 0.00 0.00 78 1019.9
20200217011303 47 285 0.0 0.0 0.00 0.00 0.00 78 1019.9
20200217010803 48 285 0.0 0.0 0.00 0.00 0.00 78 1020.0
20200217010303 48 285 0.0 0.0 0.00 0.00 0.00 78 1020.0
20200217005803 48 285 0.0 0.0 0.00 0.00 0.00 77 1020.0
20200217005304 48 285 0.0 0.0 0.00 0.00 0.00 77 1020.0
20200217004803 48 285 0.0 0.0 0.00 0.00 0.00 77 1020.0
20200217004303 48 285 0.0 0.0 0.00 0.00 0.00 78 1020.1
20200217003804 48 285 0.0 0.0 0.00 0.00 0.00 76 1020.0
20200217003303 48 285 0.0 0.0 0.00 0.00 0.00 76 1019.8
20200217002804 48 285 0.0 0.0 0.00 0.00 0.00 75 1019.9
20200217002303 48 285 0.0 0.0 0.00 0.00 0.00 75 1020.1
20200217001803 48 285 0.0 0.0 0.00 0.00 0.00 75 1020.4
20200217001303 49 285 0.0 0.0 0.00 0.00 0.00 75 1020.2
20200217000804 49 285 0.0 0.0 0.00 0.00 0.00 73 1020.2
20200217000304 49 285 0.0 0.0 0.00 0.00 0.00 73 1020.2
20200216235803 49 285 0.0 0.0 0.00 0.00 0.00 72 1020.2
20200216235304 49 285 0.0 0.0 0.00 0.00 0.00 70 1020.4
20200216234804 49 285 0.0 0.0 0.00 0.00 0.00 70 1020.4
20200216234304 49 285 0.0 0.0 0.00 0.00 0.00 69 1020.5
20200216233804 49 285 0.0 0.0 0.00 0.00 0.00 69 1020.4
20200216233304 49 285 0.0 0.0 0.00 0.00 0.00 69 1020.3
20200216232804 49 285 0.0 0.0 0.00 0.00 0.00 70 1020.3
20200216232304 50 285 0.0 0.0 0.00 0.00 0.00 71 1020.2
20200216231804 50 285 0.0 0.0 0.00 0.00 0.00 69 1020.2
20200216231304 50 286 0.0 0.0 0.00 0.00 0.00 69 1020.4
20200216230804 50 291 0.0 0.0 0.00 0.00 0.00 71 1020.3
20200216230303 50 291 0.0 0.0 0.00 0.00 0.00 69 1020.3
20200216225803 50 291 0.0 0.0 0.00 0.00 0.00 67 1020.3
20200216225303 50 291 0.0 0.0 0.00 0.00 0.00 68 1020.4
20200216224803 51 291 0.0 0.0 0.00 0.00 0.00 68 1020.4
20200216224303 51 291 0.0 0.0 0.00 0.00 0.00 67 1020.3
20200216223804 51 291 0.0 0.0 0.00 0.00 0.00 67 1020.3
20200216223303 51 291 0.0 0.0 0.00 0.00 0.00 66 1020.2
20200216222804 51 291 0.0 0.0 0.00 0.00 0.00 65 1020.2
20200216222303 51 291 0.0 0.0 0.00 0.00 0.00 64 1020.2
20200216221804 51 291 0.0 0.0 0.00 0.00 0.00 65 1020.2
20200216221304 51 291 0.0 0.0 0.00 0.00 0.00 64 1020.2
20200216220804 51 291 0.0 0.0 0.00 0.00 0.00 64 1020.1
20200216220303 52 291 0.0 0.0 0.00 0.00 0.00 66 1020.2
20200216215803 52 291 0.0 0.0 0.00 0.00 0.00 66 1020.2
20200216215303 52 291 0.0 0.0 0.00 0.00 0.00 67 1020.1
20200216214803 52 291 0.0 0.0 0.00 0.00 0.00 64 1020.3
20200216214304 52 291 0.0 0.0 0.00 0.00 0.00 62 1020.2
20200216213803 53 291 0.0 0.0 0.00 0.00 0.00 64 1020.2
20200216213304 53 291 0.0 0.0 0.00 0.00 0.00 61 1020.2
20200216212803 53 291 0.0 0.0 0.00 0.00 0.00 59 1020.2
20200216212303 53 291 0.0 0.0 0.00 0.00 0.00 59 1020.3
20200216211804 53 290 0.0 0.0 0.00 0.00 0.00 57 1020.2
20200216211304 54 291 0.0 0.0 0.00 0.00 0.00 56 1020.1
20200216210804 54 291 0.0 0.0 0.00 0.00 0.00 57 1020.2
20200216210304 54 291 0.0 0.0 0.00 0.00 0.00 54 1020.2
20200216205803 54 291 0.0 0.0 0.00 0.00 0.00 55 1020.4
20200216205304 54 291 0.0 0.0 0.00 0.00 0.00 56 1020.4
20200216204803 54 291 0.0 1.0 0.00 0.00 0.00 54 1020.6
20200216204303 54 311 0.0 2.0 0.00 0.00 0.00 53 1020.7
20200216203804 54 336 1.0 3.0 0.00 0.00 0.00 53 1020.5
20200216203303 54 281 1.0 3.0 0.00 0.00 0.00 54 1020.6
20200216202804 54 325 0.0 3.0 0.00 0.00 0.00 53 1020.6
20200216202303 54 300 1.0 3.0 0.00 0.00 0.00 52 1020.6
20200216201804 55 266 2.0 3.0 0.00 0.00 0.00 52 1020.7
20200216201304 55 290 1.0 5.0 0.00 0.00 0.00 51 1020.8
20200216200803 55 273 1.0 5.0 0.00 0.00 0.00 52 1020.9
20200216200304 55 282 1.0 7.0 0.00 0.00 0.00 53 1021.1